| time (UTC) | temp C | wind direction | speed KPH | gust KPH | rain 1hr cm | rain 24hr cm | rain mn cm | humidity % | barometer mb |
| 20260905062610 | 16 | 213 | 3.2 | 6.4 | 0.08 | 0.10 | 0.10 | 86 | 1020.3 |
| 20260905062110 | 16 | 304 | 0.0 | 4.8 | 0.10 | 0.10 | 0.10 | 88 | 1019.5 |
| 20260905061611 | 16 | 24 | 3.2 | 4.8 | 0.10 | 0.10 | 0.10 | 87 | 1019.1 |
| 20260905061110 | 15 | 4 | 1.6 | 3.2 | 0.10 | 0.10 | 0.10 | 86 | 1019.2 |
| 20260905060610 | 16 | 269 | 0.0 | 3.2 | 0.10 | 0.10 | 0.10 | 86 | 1019.1 |
| 20260905060117 | 16 | 22 | 1.6 | 3.2 | 0.10 | 0.10 | 0.10 | 85 | 1019.0 |
| 20260905055610 | 16 | 79 | 3.2 | 6.4 | 0.10 | 0.10 | 0.10 | 83 | 1019.2 |
| 20260905055111 | 16 | 80 | 0.0 | 8.0 | 0.10 | 0.10 | 0.10 | 83 | 1019.2 |
| 20260905054610 | 16 | 33 | 0.0 | 9.7 | 0.10 | 0.10 | 0.10 | 82 | 1019.5 |
| 20260905054110 | 16 | 4 | 4.8 | 9.7 | 0.10 | 0.10 | 0.10 | 81 | 1019.0 |
| 20260905053611 | 16 | 29 | 4.8 | 9.7 | 0.10 | 0.10 | 0.10 | 79 | 1019.4 |
| 20260905053110 | 17 | 60 | 1.6 | 12.9 | 0.05 | 0.05 | 0.08 | 76 | 1019.4 |
| 20260905052610 | 17 | 1 | 4.8 | 12.9 | 0.03 | 0.03 | 0.03 | 71 | 1019.4 |
| 20260905052110 | 18 | 338 | 4.8 | 12.9 | 0.00 | 0.00 | 0.00 | 66 | 1019.3 |
| 20260905051610 | 18 | 23 | 4.8 | 9.7 | 0.00 | 0.00 | 0.00 | 60 | 1018.7 |
| 20260905051110 | 18 | 7 | 6.4 | 9.7 | 0.00 | 0.00 | 0.00 | 60 | 1018.4 |
| 20260905050610 | 18 | 4 | 3.2 | 14.5 | 0.00 | 0.00 | 0.00 | 60 | 1018.1 |
| 20260905050110 | 18 | 4 | 4.8 | 17.7 | 0.00 | 0.00 | 0.00 | 59 | 1017.7 |
| 20260905045111 | 19 | 351 | 9.7 | 20.9 | 0.00 | 0.00 | 0.00 | 56 | 1018.1 |
| 20260905044610 | 19 | 0 | 9.7 | 20.9 | 0.00 | 0.00 | 0.00 | 56 | 1017.9 |
| 20260905044111 | 19 | 0 | 4.8 | 11.3 | 0.00 | 0.00 | 0.00 | 55 | 1017.7 |
| 20260905043610 | 19 | 341 | 3.2 | 14.5 | 0.00 | 0.00 | 0.00 | 55 | 1017.7 |
| 20260905043110 | 19 | 15 | 3.2 | 17.7 | 0.00 | 0.00 | 0.00 | 55 | 1017.6 |
| 20260905042110 | 19 | 15 | 4.8 | 25.7 | 0.00 | 0.00 | 0.00 | 53 | 1017.4 |
| 20260905041610 | 20 | 359 | 6.4 | 25.7 | 0.00 | 0.00 | 0.00 | 53 | 1017.1 |
| 20260905041110 | 20 | 13 | 6.4 | 25.7 | 0.00 | 0.00 | 0.00 | 55 | 1017.2 |
| 20260905040611 | 19 | 12 | 11.3 | 14.5 | 0.00 | 0.00 | 0.00 | 57 | 1017.3 |
| 20260905040118 | 19 | 357 | 6.4 | 17.7 | 0.00 | 0.00 | 0.00 | 57 | 1016.9 |
| 20260905035610 | 19 | 3 | 1.6 | 17.7 | 0.00 | 0.00 | 0.00 | 59 | 1016.8 |
| 20260905035110 | 19 | 357 | 3.2 | 11.3 | 0.00 | 0.00 | 0.00 | 58 | 1016.7 |
| 20260905034611 | 19 | 321 | 4.8 | 11.3 | 0.00 | 0.00 | 0.00 | 59 | 1016.7 |
| 20260905034110 | 19 | 52 | 3.2 | 14.5 | 0.00 | 0.00 | 0.00 | 60 | 1016.5 |
| 20260905033110 | 20 | 10 | 4.8 | 17.7 | 0.00 | 0.00 | 0.00 | 60 | 1016.6 |
| 20260905032615 | 20 | 2 | 4.8 | 17.7 | 0.00 | 0.00 | 0.00 | 60 | 1016.6 |
| 20260905032110 | 20 | 331 | 9.7 | 16.1 | 0.00 | 0.00 | 0.00 | 60 | 1016.7 |
| 20260905031110 | 20 | 345 | 4.8 | 17.7 | 0.00 | 0.00 | 0.00 | 60 | 1016.0 |
| 20260905030123 | 20 | 335 | 6.4 | 17.7 | 0.00 | 0.00 | 0.00 | 59 | 1015.6 |
| 20260905025623 | 20 | 351 | 6.4 | 22.5 | 0.00 | 0.00 | 0.00 | 59 | 1015.4 |
| 20260905025111 | 20 | 8 | 11.3 | 22.5 | 0.00 | 0.00 | 0.00 | 58 | 1015.3 |
| 20260905024610 | 20 | 353 | 4.8 | 24.1 | 0.00 | 0.00 | 0.00 | 59 | 1015.3 |
| 20260905024110 | 20 | 354 | 11.3 | 24.1 | 0.00 | 0.00 | 0.00 | 59 | 1015.3 |
| 20260905023111 | 21 | 21 | 8.0 | 22.5 | 0.00 | 0.00 | 0.00 | 62 | 1015.1 |
| 20260905022610 | 21 | 358 | 12.9 | 29.0 | 0.00 | 0.00 | 0.00 | 62 | 1014.9 |
| 20260905022110 | 21 | 13 | 9.7 | 29.0 | 0.00 | 0.00 | 0.00 | 62 | 1014.6 |
| 20260905020610 | 23 | 357 | 12.9 | 38.6 | 0.00 | 0.00 | 0.00 | 59 | 1014.2 |
| 20260905015610 | 25 | 198 | 1.6 | 8.0 | 0.00 | 0.00 | 0.00 | 52 | 1013.0 |
| 20260905015111 | 25 | 341 | 3.2 | 9.7 | 0.00 | 0.00 | 0.00 | 54 | 1013.1 |
| 20260905014610 | 25 | 255 | 0.0 | 9.7 | 0.00 | 0.00 | 0.00 | 51 | 1012.9 |
| 20260905014109 | 25 | 245 | 3.2 | 8.0 | 0.00 | 0.00 | 0.00 | 50 | 1013.2 |
| 20260905013610 | 25 | 221 | 1.6 | 8.0 | 0.00 | 0.00 | 0.00 | 49 | 1013.0 |
| 20260905013111 | 25 | 321 | 3.2 | 6.4 | 0.00 | 0.00 | 0.00 | 49 | 1013.1 |
| 20260905012610 | 25 | 264 | 1.6 | 6.4 | 0.00 | 0.00 | 0.00 | 49 | 1012.7 |
| 20260905012110 | 25 | 285 | 3.2 | 6.4 | 0.00 | 0.00 | 0.00 | 49 | 1012.7 |
| 20260905011110 | 25 | 289 | 1.6 | 8.0 | 0.00 | 0.00 | 0.00 | 48 | 1012.8 |
| 20260905010116 | 25 | 236 | 3.2 | 8.0 | 0.00 | 0.00 | 0.00 | 48 | 1012.9 |
| 20260905005110 | 25 | 257 | 3.2 | 6.4 | 0.00 | 0.00 | 0.00 | 47 | 1012.4 |
| 20260905004610 | 26 | 227 | 1.6 | 6.4 | 0.00 | 0.00 | 0.00 | 47 | 1012.8 |
| 20260905003610 | 26 | 239 | 1.6 | 9.7 | 0.00 | 0.00 | 0.00 | 46 | 1012.7 |
| 20260905003110 | 26 | 225 | 1.6 | 9.7 | 0.00 | 0.00 | 0.00 | 46 | 1012.5 |
| 20260905002610 | 26 | 212 | 3.2 | 8.0 | 0.00 | 0.00 | 0.00 | 46 | 1012.5 |
| 20260905002110 | 26 | 241 | 4.8 | 8.0 | 0.00 | 0.00 | 0.00 | 46 | 1012.8 |
| 20260905001610 | 25 | 229 | 4.8 | 8.0 | 0.00 | 0.00 | 0.00 | 46 | 1012.8 |
| 20260905001110 | 25 | 273 | 1.6 | 6.4 | 0.00 | 0.00 | 0.00 | 47 | 1012.5 |
| 20260905000115 | 26 | 278 | 3.2 | 8.0 | 0.00 | 0.00 | 0.00 | 46 | 1012.6 |
| 20260904235110 | 26 | 279 | 3.2 | 11.3 | 0.00 | 0.00 | 0.00 | 46 | 1012.3 |
| 20260904234611 | 26 | 247 | 4.8 | 8.0 | 0.00 | 0.00 | 0.00 | 45 | 1012.5 |
| 20260904234110 | 26 | 258 | 3.2 | 8.0 | 0.00 | 0.00 | 0.00 | 45 | 1012.6 |
| 20260904233610 | 26 | 341 | 3.2 | 12.9 | 0.00 | 0.00 | 0.00 | 45 | 1012.4 |
| 20260904233109 | 26 | 346 | 4.8 | 12.9 | 0.00 | 0.00 | 0.00 | 45 | 1012.3 |
| 20260904232610 | 26 | 273 | 1.6 | 9.7 | 0.00 | 0.00 | 0.00 | 45 | 1012.4 |
| 20260904232110 | 26 | 216 | 3.2 | 9.7 | 0.00 | 0.00 | 0.00 | 45 | 1012.3 |
| 20260904231610 | 26 | 232 | 4.8 | 12.9 | 0.00 | 0.00 | 0.00 | 45 | 1012.2 |
| 20260904231110 | 26 | 236 | 3.2 | 12.9 | 0.00 | 0.00 | 0.00 | 45 | 1012.2 |
| 20260904230610 | 26 | 244 | 8.0 | 11.3 | 0.00 | 0.00 | 0.00 | 45 | 1012.1 |
| 20260904230115 | 26 | 239 | 6.4 | 12.9 | 0.00 | 0.00 | 0.00 | 45 | 1012.2 |
| 20260904225610 | 26 | 266 | 3.2 | 12.9 | 0.00 | 0.00 | 0.00 | 45 | 1012.0 |
| 20260904225110 | 25 | 283 | 1.6 | 16.1 | 0.00 | 0.00 | 0.00 | 46 | 1012.0 |
| 20260904224611 | 26 | 253 | 3.2 | 16.1 | 0.00 | 0.00 | 0.00 | 45 | 1012.0 |
| 20260904223610 | 25 | 241 | 4.8 | 14.5 | 0.00 | 0.00 | 0.00 | 46 | 1011.8 |
| 20260904223109 | 25 | 229 | 6.4 | 14.5 | 0.00 | 0.00 | 0.00 | 46 | 1011.9 |
| 20260904221110 | 25 | 205 | 6.4 | 11.3 | 0.00 | 0.00 | 0.00 | 47 | 1011.8 |
| 20260904220610 | 25 | 220 | 8.0 | 11.3 | 0.00 | 0.00 | 0.00 | 47 | 1011.7 |
| 20260904220116 | 24 | 244 | 6.4 | 11.3 | 0.00 | 0.00 | 0.00 | 47 | 1012.0 |
| 20260904215611 | 24 | 218 | 3.2 | 9.7 | 0.00 | 0.00 | 0.00 | 48 | 1011.7 |
| 20260904214611 | 23 | 242 | 4.8 | 8.0 | 0.00 | 0.00 | 0.00 | 49 | 1011.9 |
| 20260904214110 | 23 | 237 | 6.4 | 8.0 | 0.00 | 0.00 | 0.00 | 49 | 1012.0 |
| 20260904213111 | 23 | 232 | 1.6 | 8.0 | 0.00 | 0.00 | 0.00 | 50 | 1012.0 |
| 20260904212610 | 23 | 224 | 1.6 | 8.0 | 0.00 | 0.00 | 0.00 | 51 | 1011.9 |
| 20260904212110 | 22 | 199 | 3.2 | 6.4 | 0.00 | 0.00 | 0.00 | 51 | 1011.9 |
| 20260904211610 | 23 | 227 | 1.6 | 8.0 | 0.00 | 0.00 | 0.00 | 50 | 1012.2 |
| 20260904211110 | 23 | 225 | 3.2 | 8.0 | 0.00 | 0.00 | 0.00 | 50 | 1012.3 |
| 20260904210610 | 23 | 229 | 1.6 | 6.4 | 0.00 | 0.00 | 0.00 | 50 | 1012.2 |
| 20260904210110 | 23 | 224 | 4.8 | 6.4 | 0.00 | 0.00 | 0.00 | 50 | 1012.1 |
| 20260904205610 | 23 | 247 | 1.6 | 4.8 | 0.00 | 0.00 | 0.00 | 50 | 1012.2 |
| 20260904204611 | 23 | 198 | 1.6 | 6.4 | 0.00 | 0.00 | 0.00 | 49 | 1012.1 |
| 20260904204110 | 23 | 220 | 3.2 | 6.4 | 0.00 | 0.00 | 0.00 | 49 | 1012.1 |
| 20260904203610 | 23 | 216 | 4.8 | 6.4 | 0.00 | 0.00 | 0.00 | 49 | 1012.2 |
| 20260904203110 | 23 | 222 | 3.2 | 6.4 | 0.00 | 0.00 | 0.00 | 49 | 1012.1 |
| 20260904202610 | 23 | 228 | 3.2 | 6.4 | 0.00 | 0.00 | 0.00 | 49 | 1012.2 |
| 20260904202110 | 23 | 231 | 1.6 | 6.4 | 0.00 | 0.00 | 0.00 | 48 | 1012.3 |
| 20260904201610 | 24 | 220 | 4.8 | 8.0 | 0.00 | 0.00 | 0.00 | 47 | 1012.2 |
| 20260904201110 | 24 | 245 | 3.2 | 8.0 | 0.00 | 0.00 | 0.00 | 47 | 1011.9 |
| 20260904200611 | 24 | 246 | 6.4 | 6.4 | 0.00 | 0.00 | 0.00 | 46 | 1012.1 |
| 20260904200110 | 24 | 262 | 3.2 | 6.4 | 0.00 | 0.00 | 0.00 | 46 | 1011.9 |
| 20260904195611 | 24 | 208 | 6.4 | 6.4 | 0.00 | 0.00 | 0.00 | 46 | 1012.1 |
| 20260904195110 | 24 | 168 | 1.6 | 6.4 | 0.00 | 0.00 | 0.00 | 46 | 1012.2 |
| 20260904194611 | 25 | 217 | 3.2 | 6.4 | 0.00 | 0.00 | 0.00 | 45 | 1012.2 |
| 20260904194111 | 25 | 244 | 3.2 | 6.4 | 0.00 | 0.00 | 0.00 | 45 | 1012.2 |
| 20260904193610 | 25 | 237 | 4.8 | 6.4 | 0.00 | 0.00 | 0.00 | 44 | 1012.2 |
| 20260904193110 | 25 | 255 | 6.4 | 6.4 | 0.00 | 0.00 | 0.00 | 43 | 1012.2 |
| 20260904192611 | 26 | 236 | 3.2 | 6.4 | 0.00 | 0.00 | 0.00 | 43 | 1012.3 |
| 20260904192110 | 26 | 237 | 6.4 | 6.4 | 0.00 | 0.00 | 0.00 | 43 | 1012.3 |
| 20260904191610 | 26 | 230 | 3.2 | 6.4 | 0.00 | 0.00 | 0.00 | 43 | 1012.1 |
| 20260904190609 | 26 | 223 | 3.2 | 6.4 | 0.00 | 0.00 | 0.00 | 43 | 1011.9 |
| 20260904185110 | 26 | 232 | 4.8 | 6.4 | 0.00 | 0.00 | 0.00 | 42 | 1011.9 |
| 20260904184610 | 26 | 224 | 3.2 | 6.4 | 0.00 | 0.00 | 0.00 | 42 | 1012.1 |
| 20260904184110 | 26 | 252 | 0.0 | 6.4 | 0.00 | 0.00 | 0.00 | 42 | 1011.9 |
| 20260904183610 | 26 | 259 | 1.6 | 6.4 | 0.00 | 0.00 | 0.00 | 42 | 1012.1 |
| 20260904183110 | 26 | 260 | 1.6 | 6.4 | 0.00 | 0.00 | 0.00 | 42 | 1011.8 |
| 20260904182611 | 26 | 229 | 3.2 | 6.4 | 0.00 | 0.00 | 0.00 | 43 | 1011.7 |
| 20260904182110 | 26 | 251 | 3.2 | 6.4 | 0.00 | 0.00 | 0.00 | 43 | 1012.1 |
| 20260904181610 | 26 | 242 | 3.2 | 6.4 | 0.00 | 0.00 | 0.00 | 43 | 1011.8 |
| 20260904180610 | 26 | 239 | 3.2 | 6.4 | 0.00 | 0.00 | 0.00 | 42 | 1011.8 |
| 20260904175611 | 27 | 243 | 3.2 | 6.4 | 0.00 | 0.00 | 0.00 | 41 | 1011.6 |
| 20260904174610 | 27 | 222 | 6.4 | 6.4 | 0.00 | 0.00 | 0.00 | 41 | 1011.6 |
| 20260904174110 | 27 | 241 | 3.2 | 6.4 | 0.00 | 0.00 | 0.00 | 40 | 1011.5 |
| 20260904173609 | 28 | 238 | 1.6 | 8.0 | 0.00 | 0.00 | 0.00 | 40 | 1011.4 |
| 20260904173110 | 28 | 252 | 4.8 | 8.0 | 0.00 | 0.00 | 0.00 | 39 | 1011.5 |
| 20260904172609 | 28 | 232 | 3.2 | 6.4 | 0.00 | 0.00 | 0.00 | 39 | 1011.5 |
| 20260904172110 | 28 | 241 | 1.6 | 6.4 | 0.00 | 0.00 | 0.00 | 39 | 1011.4 |
| 20260904171610 | 29 | 230 | 3.2 | 6.4 | 0.00 | 0.00 | 0.00 | 38 | 1011.5 |
| 20260904171110 | 29 | 229 | 3.2 | 11.3 | 0.00 | 0.00 | 0.00 | 37 | 1011.5 |
| 20260904170612 | 30 | 243 | 3.2 | 14.5 | 0.00 | 0.00 | 0.00 | 37 | 1011.7 |
| 20260904170110 | 30 | 239 | 6.4 | 14.5 | 0.00 | 0.00 | 0.00 | 36 | 1011.7 |
| 20260904165110 | 30 | 227 | 4.8 | 12.9 | 0.00 | 0.00 | 0.00 | 36 | 1011.9 |
| 20260904164611 | 30 | 276 | 1.6 | 12.9 | 0.00 | 0.00 | 0.00 | 35 | 1011.7 |
| 20260904164110 | 30 | 230 | 6.4 | 17.7 | 0.00 | 0.00 | 0.00 | 35 | 1012.0 |
| 20260904163610 | 31 | 329 | 0.0 | 20.9 | 0.00 | 0.00 | 0.00 | 35 | 1011.7 |
| 20260904162609 | 31 | 264 | 0.0 | 20.9 | 0.00 | 0.00 | 0.00 | 35 | 1012.1 |
| 20260904161610 | 31 | 228 | 14.5 | 20.9 | 0.00 | 0.00 | 0.00 | 35 | 1012.3 |
| 20260904160611 | 31 | 246 | 8.0 | 22.5 | 0.00 | 0.00 | 0.00 | 35 | 1012.1 |
| 20260904160110 | 31 | 243 | 14.5 | 27.4 | 0.00 | 0.00 | 0.00 | 35 | 1012.3 |
| 20260904155610 | 31 | 276 | 8.0 | 27.4 | 0.00 | 0.00 | 0.00 | 35 | 1012.4 |
| 20260904155110 | 31 | 228 | 9.7 | 25.7 | 0.00 | 0.00 | 0.00 | 35 | 1012.5 |
| 20260904154610 | 31 | 265 | 4.8 | 27.4 | 0.00 | 0.00 | 0.00 | 36 | 1012.4 |
| 20260904154110 | 31 | 223 | 11.3 | 27.4 | 0.00 | 0.00 | 0.00 | 35 | 1012.4 |
| 20260904153110 | 31 | 237 | 9.7 | 33.8 | 0.00 | 0.00 | 0.00 | 35 | 1012.6 |
| 20260904152611 | 31 | 240 | 6.4 | 33.8 | 0.00 | 0.00 | 0.00 | 35 | 1012.7 |
| 20260904151609 | 31 | 234 | 9.7 | 14.5 | 0.00 | 0.00 | 0.00 | 36 | 1013.1 |
| 20260904151110 | 31 | 348 | 1.6 | 20.9 | 0.00 | 0.00 | 0.00 | 37 | 1013.2 |
| 20260904145610 | 31 | 229 | 9.7 | 17.7 | 0.00 | 0.00 | 0.00 | 36 | 1013.5 |
| 20260904144622 | 31 | 223 | 9.7 | 17.7 | 0.00 | 0.00 | 0.00 | 37 | 1013.4 |
| 20260904144110 | 31 | 247 | 3.2 | 22.5 | 0.00 | 0.00 | 0.00 | 36 | 1013.7 |
| 20260904143611 | 31 | 251 | 12.9 | 25.7 | 0.00 | 0.00 | 0.00 | 36 | 1013.4 |
| 20260904143110 | 31 | 231 | 14.5 | 25.7 | 0.00 | 0.00 | 0.00 | 36 | 1013.4 |
| 20260904141610 | 31 | 216 | 12.9 | 22.5 | 0.00 | 0.00 | 0.00 | 37 | 1013.5 |
| 20260904141110 | 31 | 277 | 4.8 | 22.5 | 0.00 | 0.00 | 0.00 | 36 | 1013.7 |
| 20260904140111 | 32 | 12 | 4.8 | 19.3 | 0.00 | 0.00 | 0.00 | 35 | 1013.8 |
| 20260904135110 | 32 | 323 | 8.0 | 16.1 | 0.00 | 0.00 | 0.00 | 34 | 1013.9 |
| 20260904134610 | 32 | 223 | 6.4 | 14.5 | 0.00 | 0.00 | 0.00 | 34 | 1013.9 |
| 20260904134127 | 32 | 268 | 3.2 | 14.5 | 0.00 | 0.00 | 0.00 | 35 | 1014.1 |
| 20260904133610 | 32 | 236 | 4.8 | 9.7 | 0.00 | 0.00 | 0.00 | 35 | 1014.1 |
| 20260904133110 | 32 | 248 | 4.8 | 14.5 | 0.00 | 0.00 | 0.00 | 36 | 1014.3 |
| 20260904132610 | 31 | 262 | 1.6 | 14.5 | 0.00 | 0.00 | 0.00 | 37 | 1014.3 |
| 20260904132110 | 31 | 229 | 6.4 | 14.5 | 0.00 | 0.00 | 0.00 | 37 | 1014.3 |
| 20260904130609 | 32 | 202 | 3.2 | 14.5 | 0.00 | 0.00 | 0.00 | 35 | 1014.5 |
| 20260904130112 | 32 | 354 | 3.2 | 14.5 | 0.00 | 0.00 | 0.00 | 36 | 1014.7 |
| 20260904125610 | 32 | 242 | 8.0 | 14.5 | 0.00 | 0.00 | 0.00 | 36 | 1014.7 |
| 20260904125110 | 32 | 227 | 3.2 | 16.1 | 0.00 | 0.00 | 0.00 | 36 | 1014.6 |
| 20260904124610 | 32 | 234 | 1.6 | 16.1 | 0.00 | 0.00 | 0.00 | 37 | 1014.8 |
| 20260904124112 | 32 | 273 | 6.4 | 12.9 | 0.00 | 0.00 | 0.00 | 37 | 1014.9 |
| 20260904123610 | 31 | 233 | 6.4 | 12.9 | 0.00 | 0.00 | 0.00 | 38 | 1015.1 |
| 20260904122610 | 32 | 214 | 3.2 | 17.7 | 0.00 | 0.00 | 0.00 | 37 | 1014.8 |
| 20260904122111 | 31 | 243 | 3.2 | 16.1 | 0.00 | 0.00 | 0.00 | 37 | 1014.9 |
| 20260904121610 | 31 | 308 | 3.2 | 16.1 | 0.00 | 0.00 | 0.00 | 39 | 1015.4 |
| 20260904121110 | 31 | 347 | 9.7 | 12.9 | 0.00 | 0.00 | 0.00 | 38 | 1015.3 |
| 20260904120610 | 31 | 250 | 4.8 | 12.9 | 0.00 | 0.00 | 0.00 | 38 | 1015.6 |
| 20260904120111 | 31 | 240 | 6.4 | 14.5 | 0.00 | 0.00 | 0.00 | 38 | 1015.5 |
| 20260904115610 | 31 | 224 | 4.8 | 17.7 | 0.00 | 0.00 | 0.00 | 40 | 1015.5 |
| 20260904115109 | 31 | 208 | 4.8 | 20.9 | 0.00 | 0.00 | 0.00 | 38 | 1015.8 |
| 20260904114610 | 31 | 267 | 6.4 | 20.9 | 0.00 | 0.00 | 0.00 | 38 | 1015.8 |
| 20260904114111 | 31 | 299 | 12.9 | 25.7 | 0.00 | 0.00 | 0.00 | 39 | 1016.0 |
| 20260904112109 | 30 | 296 | 6.4 | 16.1 | 0.00 | 0.00 | 0.00 | 40 | 1016.0 |
| 20260904111609 | 31 | 279 | 6.4 | 17.7 | 0.00 | 0.00 | 0.00 | 39 | 1016.2 |
| 20260904111111 | 31 | 3 | 12.9 | 17.7 | 0.00 | 0.00 | 0.00 | 38 | 1016.1 |
| 20260904110610 | 31 | 247 | 4.8 | 17.7 | 0.00 | 0.00 | 0.00 | 39 | 1016.0 |
| 20260904110111 | 30 | 227 | 9.7 | 17.7 | 0.00 | 0.00 | 0.00 | 40 | 1016.2 |
| 20260904105610 | 30 | 235 | 3.2 | 11.3 | 0.00 | 0.00 | 0.00 | 42 | 1016.4 |
| 20260904105111 | 28 | 286 | 4.8 | 12.9 | 0.00 | 0.00 | 0.00 | 43 | 1016.6 |
| 20260904104610 | 29 | 34 | 0.0 | 12.9 | 0.00 | 0.00 | 0.00 | 44 | 1016.8 |
| 20260904104110 | 29 | 272 | 4.8 | 12.9 | 0.00 | 0.00 | 0.00 | 44 | 1016.5 |
| 20260904103610 | 28 | 231 | 11.3 | 19.3 | 0.00 | 0.00 | 0.00 | 46 | 1016.8 |
| 20260904103110 | 28 | 219 | 4.8 | 19.3 | 0.00 | 0.00 | 0.00 | 47 | 1016.8 |
| 20260904102610 | 27 | 263 | 0.0 | 17.7 | 0.00 | 0.00 | 0.00 | 49 | 1017.0 |
| 20260904102110 | 27 | 233 | 8.0 | 17.7 | 0.00 | 0.00 | 0.00 | 48 | 1017.2 |
| 20260904101610 | 27 | 234 | 3.2 | 16.1 | 0.00 | 0.00 | 0.00 | 48 | 1017.1 |
| 20260904101112 | 27 | 232 | 11.3 | 20.9 | 0.00 | 0.00 | 0.00 | 49 | 1017.3 |
| 20260904100610 | 26 | 244 | 1.6 | 20.9 | 0.00 | 0.00 | 0.00 | 50 | 1017.4 |
| 20260904100111 | 26 | 285 | 1.6 | 12.9 | 0.00 | 0.00 | 0.00 | 51 | 1017.4 |
| 20260904095611 | 26 | 232 | 6.4 | 16.1 | 0.00 | 0.00 | 0.00 | 51 | 1017.6 |
| 20260904095111 | 26 | 235 | 3.2 | 17.7 | 0.00 | 0.00 | 0.00 | 52 | 1017.5 |
| 20260904094610 | 26 | 238 | 8.0 | 17.7 | 0.00 | 0.00 | 0.00 | 52 | 1017.8 |
| 20260904094110 | 26 | 231 | 11.3 | 17.7 | 0.00 | 0.00 | 0.00 | 51 | 1017.7 |
| 20260904093610 | 26 | 243 | 6.4 | 17.7 | 0.00 | 0.00 | 0.00 | 50 | 1017.6 |
| 20260904093109 | 26 | 228 | 4.8 | 17.7 | 0.00 | 0.00 | 0.00 | 50 | 1018.1 |
| 20260904092610 | 27 | 235 | 9.7 | 14.5 | 0.00 | 0.00 | 0.00 | 50 | 1017.8 |
| 20260904091111 | 26 | 293 | 1.6 | 14.5 | 0.00 | 0.00 | 0.00 | 50 | 1018.3 |
| 20260904090610 | 27 | 238 | 3.2 | 16.1 | 0.00 | 0.00 | 0.00 | 49 | 1018.2 |
| 20260904090123 | 27 | 225 | 8.0 | 16.1 | 0.00 | 0.00 | 0.00 | 49 | 1018.2 |
| 20260904085610 | 27 | 266 | 1.6 | 19.3 | 0.00 | 0.00 | 0.00 | 49 | 1018.2 |
| 20260904085111 | 27 | 237 | 3.2 | 19.3 | 0.00 | 0.00 | 0.00 | 49 | 1018.2 |
| 20260904084610 | 27 | 250 | 6.4 | 17.7 | 0.00 | 0.00 | 0.00 | 49 | 1018.5 |
| 20260904084112 | 27 | 245 | 4.8 | 14.5 | 0.00 | 0.00 | 0.00 | 49 | 1018.5 |
| 20260904083611 | 27 | 228 | 9.7 | 12.9 | 0.00 | 0.00 | 0.00 | 49 | 1018.6 |
| 20260904082609 | 27 | 298 | 0.0 | 12.9 | 0.00 | 0.00 | 0.00 | 50 | 1018.5 |
| 20260904082110 | 27 | 213 | 3.2 | 6.4 | 0.00 | 0.00 | 0.00 | 48 | 1018.8 |
| 20260904081610 | 27 | 348 | 3.2 | 9.7 | 0.00 | 0.00 | 0.00 | 50 | 1018.6 |
| 20260904081125 | 25 | 315 | 0.0 | 9.7 | 0.00 | 0.00 | 0.00 | 52 | 1018.7 |
| 20260904080610 | 25 | 236 | 3.2 | 12.9 | 0.00 | 0.00 | 0.00 | 53 | 1018.6 |
| 20260904075610 | 25 | 219 | 6.4 | 16.1 | 0.00 | 0.00 | 0.00 | 52 | 1018.6 |
| 20260904074611 | 26 | 239 | 3.2 | 9.7 | 0.00 | 0.00 | 0.00 | 50 | 1018.9 |
| 20260904074111 | 25 | 200 | 3.2 | 9.7 | 0.00 | 0.00 | 0.00 | 52 | 1018.9 |
| 20260904073611 | 25 | 237 | 4.8 | 11.3 | 0.00 | 0.00 | 0.00 | 52 | 1018.7 |
| 20260904073110 | 24 | 287 | 0.0 | 12.9 | 0.00 | 0.00 | 0.00 | 55 | 1018.8 |
| 20260904072611 | 24 | 221 | 11.3 | 16.1 | 0.00 | 0.00 | 0.00 | 55 | 1018.6 |
| 20260904071610 | 23 | 246 | 1.6 | 14.5 | 0.00 | 0.00 | 0.00 | 57 | 1018.8 |
| 20260904070610 | 22 | 199 | 4.8 | 14.5 | 0.00 | 0.00 | 0.00 | 59 | 1018.6 |
| 20260904070111 | 22 | 192 | 6.4 | 14.5 | 0.00 | 0.00 | 0.00 | 60 | 1018.8 |
| 20260904065610 | 22 | 229 | 6.4 | 14.5 | 0.00 | 0.00 | 0.00 | 61 | 1018.9 |
| 20260904065112 | 22 | 234 | 6.4 | 14.5 | 0.00 | 0.00 | 0.00 | 62 | 1018.9 |
| 20260904064611 | 21 | 212 | 6.4 | 14.5 | 0.00 | 0.00 | 0.00 | 63 | 1019.1 |
| 20260904064111 | 21 | 229 | 11.3 | 14.5 | 0.00 | 0.00 | 0.00 | 63 | 1018.9 |
| 20260904063611 | 21 | 355 | 3.2 | 11.3 | 0.00 | 0.00 | 0.00 | 64 | 1018.7 |
| 20260904063110 | 21 | 236 | 3.2 | 11.3 | 0.00 | 0.00 | 0.00 | 64 | 1018.9 |